This is the latest recevied weather packets stored in our database for station/object IK3ZGB. If no packets are shown the sender has not sent any weather packets the latest 10 day(s).
| Time | Temp. | Humidity | Pressure | Rain* | Wind** | Luminosity | Snow |
|---|---|---|---|---|---|---|---|
| 1777477390 | 17.78° C | 68% | 1018.5 hPa | - | - | - | - |
| 1777476790 | 17.78° C | 68% | 1018.6 hPa | - | - | - | - |
| 1777476190 | 18.33° C | 68% | 1018.8 hPa | - | - | - | - |
| 1777475590 | 17.78° C | 67% | 1018.7 hPa | - | - | - | - |
| 1777474990 | 18.33° C | 67% | 1018.6 hPa | - | - | - | - |
| 1777474390 | 18.33° C | 67% | 1018.7 hPa | - | - | - | - |
| 1777473791 | 18.33° C | 68% | 1018.6 hPa | - | - | - | - |
| 1777473191 | 18.33° C | 67% | 1018.5 hPa | - | - | - | - |
| 1777472592 | 18.89° C | 67% | 1018.4 hPa | - | - | - | - |
| 1777471992 | 18.89° C | 66% | 1018.3 hPa | - | - | - | - |
| 1777471389 | 18.89° C | 66% | 1018.5 hPa | - | - | - | - |
| 1777470792 | 19.44° C | 65% | 1018.4 hPa | - | - | - | - |
| 1777470191 | 20° C | 64% | 1018.3 hPa | - | - | - | - |
| 1777469591 | 19.44° C | 64% | 1018.1 hPa | - | - | - | - |
| 1777468990 | 20° C | 64% | 1018.3 hPa | - | - | - | - |
| 1777468392 | 20° C | 64% | 1018.1 hPa | - | - | - | - |
| 1777467791 | 20° C | 63% | 1018 hPa | - | - | - | - |
| 1777467191 | 20.56° C | 64% | 1018.1 hPa | - | - | - | - |
| 1777466590 | 20.56° C | 63% | 1017.9 hPa | - | - | - | - |
| 1777465990 | 20.56° C | 63% | 1018 hPa | - | - | - | - |
| 1777465391 | 20.56° C | 64% | 1018.2 hPa | - | - | - | - |
| 1777464790 | 21.11° C | 62% | 1018 hPa | - | - | - | - |
| 1777464189 | 21.11° C | 61% | 1018.3 hPa | - | - | - | - |
| 1777463591 | 21.11° C | 60% | 1018 hPa | - | - | - | - |
| 1777462991 | 21.11° C | 61% | 1018 hPa | - | - | - | - |
* Rain since midnight (hover to see other rain measurements)
** Current wind speed in m/s (hover to see current wind gust speed)